Regional Weather Roundup
Issued by NWS

Home | Current Version | Previous Version | Graphics & Text | Print | Product List | Glossary On
Versions: 1 2 3 4 5 6 7 8 9 10 11 12 13 14 15 16 17 18 19 20 21 22 23 24 25 26 27 28 29 30 31 32 33 34 35 36 37 38 39 40 41 42 43 44 45 46 47 48 49 50
000
ASUS43 KMKX 070759
RWRWI

WISCONSIN REGIONAL WEATHER ROUNDUP
NATIONAL WEATHER SERVICE MILWAUKEE/SULLIVAN WI
200 AM CST SUN FEB 07 2016

NOTE: "FAIR" INDICATES FEW OR NO CLOUDS BELOW 12,000 FEET WITH NO
SIGNIFICANT WEATHER AND/OR OBSTRUCTIONS TO VISIBILITY.

WIZ001-002-006>008-014>016-023>028-070900-
NORTHWEST WISCONSIN

CITY           SKY/WX    TMP DP  RH WIND       PRES   REMARKS
SUPERIOR ARPT  CLOUDY    34  31  88 SW14      29.59F WCI  24
ASHLAND        CLOUDY    31  28  89 S15G21    29.62F WCI  20
HAYWARD        CLOUDY    31  26  82 S10       29.64F WCI  22
SIREN          MOCLDY    32  28  84 SW9       29.66F WCI  24
CUMBERLAND     MOCLDY    30  28  93 S9        29.67S WCI  22
RICE LAKE      MOCLDY    30  27  86 S7        29.70F WCI  23
CHETEK         MOCLDY    31  27  86 S6        29.69F WCI  25
LADYSMITH      CLOUDY    30  28  91 S9        29.70F WCI  22
EAU CLAIRE     NOT AVBL
MENOMONIE      PTCLDY    33  28  83 S8        29.70F WCI  25
NEW RICHMOND   PTCLDY    32  27  81 S9        29.69S WCI  24
OSCEOLA        CLOUDY    32  28  86 S5        29.72R WCI  27
$$

WIZ003>005-009-010-017-018-070900-
NORTH CENTRAL WISCONSIN

CITY           SKY/WX    TMP DP  RH WIND       PRES   REMARKS
MANITOWISH WTR LGT SNOW  28  27  96 S10G16    29.65F WCI  18
ARBOR VITAE    LGT SNOW  29  26  88 S15       29.67F WCI  18
WOODRUFF       LGT SNOW  29  26  88 S15       29.67F WCI  18
RHINELANDER    LGT SNOW  28  24  85 S12       29.69F FOG     WCI  18
EAGLE RIVER    LGT SNOW  28  24  87 S9        29.68F WCI  19
LAND O LAKES   LGT SNOW  28  26  91 S10       29.68F WCI  19
PHILLIPS       CLOUDY    28  26  94 S8        29.67F WCI  20
TOMAHAWK       LGT SNOW  28  25  91 S5        29.71F WCI  22
MEDFORD        CLOUDY    28  27  96 S14G20    29.70F WCI  17
MERRILL        LGT SNOW  28  27  95 S6        29.75F WCI  22
$$

WIZ029-030-035-036-043>047-070900-
CENTRAL WISCONSIN

CITY           SKY/WX    TMP DP  RH WIND       PRES   REMARKS
WAUSAU         LGT SNOW  30  27  88 S10       29.74F FOG     WCI  21
MOSINEE        LGT SNOW  28  28 100 S13       29.77F WCI  18
MARSHFIELD     CLOUDY    30  25  81 S14       29.71F WCI  19
STEVENS POINT  CLOUDY    28  25  87 S10       29.80F WCI  19
WAUPACA        CLOUDY    32  28  83 S7        29.84F WCI  26
WAUTOMA        NOT AVBL
WISC RAPIDS    CLOUDY    32  26  78 S9        29.79F WCI  24
CAMP DOUGLAS   NOT AVBL
$$

WIZ011>013-019>022-031-037>040-048>050-070900-
NORTHEAST WISCONSIN

CITY           SKY/WX    TMP DP  RH WIND       PRES   REMARKS
ANTIGO         CLOUDY    27  25  90 S13       29.75F WCI  16
SHAWANO        LGT SNOW  32  27  81 S3        29.84F
OCONTO         CLOUDY    30  26  88 SW6       29.85F WCI  24
STURGEON BAY   CLOUDY    30  23  74 S12       29.87F WCI  21
GREEN BAY      CLOUDY    32  27  81 S9        29.85F WCI  24
MANITOWOC      NOT AVBL
APPLETON       CLOUDY    32  27  80 S13       29.83F WCI  22
CLINTONVILLE   CLOUDY    30  27  86 S7        29.84F WCI  23
OSHKOSH        CLOUDY    33  28  81 S14G23    29.84F WCI  23
$$

WIZ032>034-041-042-053>061-070900-
SOUTHWEST WISCONSIN

CITY           SKY/WX    TMP DP  RH WIND       PRES   REMARKS
LA CROSSE      CLOUDY    34  28  79 S14G24    29.75F WCI  25
SPARTA         CLOUDY    34  30  84 S9        29.79F WCI  27
VIROQUA        CLOUDY    33  30  90 S15       29.80F WCI  23
BOSCOBEL       CLOUDY    35  32  88 SW6       29.85F WCI  30
PRAIRIE DU CHI CLOUDY    37  29  71 S6        29.85F WCI  33
PLATTEVILLE    CLOUDY    35  32  87 S13       29.88F WCI  26
$$

WIZ056-057-062-063-064-067-068-070900-
SOUTH CENTRAL WISCONSIN

CITY           SKY/WX    TMP DP  RH WIND       PRES   REMARKS
REEDSBURG      MOCLDY    34  30  85 S10       29.83F WCI  26
BARABOO/DELLS  CLOUDY    33  28  84 S10       29.82F WCI  24
LONE ROCK      CLOUDY    37  29  72 S17       29.85F WCI  27
MINERAL POINT  CLOUDY    36  32  87 S12       29.86F WCI  27
MADISON        CLOUDY    33  29  85 S8        29.87F WCI  26
MIDDLETON      CLOUDY    36  31  81 S12G18    29.88F WCI  28
WATERTOWN      CLOUDY    33  33 100 S8        29.91F WCI  26
MONROE         CLOUDY    34  32  93 S17       29.90F WCI  23
JANESVILLE     CLOUDY    36  32  87 S10       29.93F WCI  28
$$

WIZ051-052-058>065-066-070>072-070900-
SOUTHEAST WISCONSIN

CITY           SKY/WX    TMP DP  RH WIND       PRES   REMARKS
MILWAUKEE      CLOUDY    33  28  81 S9        29.95F WCI  25
WAUKESHA       CLOUDY    32  28  86 S8        29.94F WCI  25
MILWAUKEE/TIMM CLOUDY    32  28  86 S6        29.95F WCI  26
RACINE         CLOUDY    35  27  72 SW9       29.97F WCI  28
BURLINGTON     MOCLDY    32  28  84 S8        29.96F WCI  24
KENOSHA        CLOUDY    35  28  75 S9        29.96F WCI  28
FOND DU LAC    CLOUDY    34  29  82 S16G23    29.86F WCI  24
SHEBOYGAN      CLOUDY    33  28  81 S7        29.89F WCI  27
WEST BEND      CLOUDY    34  30  86 S10       29.91F WCI  26
JUNEAU         CLOUDY    32  29  89 S13       29.90F WCI  22
$$

LSZ147-162-070900-
LAKE SUPERIOR

STATION/POSITION TIME  TEMP    WIND        PRES    WAVE
                       AIR SEA DIR/SP/G            HT/PER
                 (UTC) (F)     (DEG/KT/KT) (MB)    (FT/S)
DEVILS ISLAND    0700   31     190/  8/ 11 1003.9F
PORT WING        0720          180/ 10/ 22 1002.7
SAXON HARBOR     0700   32                 1003.4F
$$

LMZ867-665-643>646-070900-
LAKE MICHIGAN

STATION/POSITION TIME  TEMP    WIND        PRES    WAVE
                       AIR SEA DIR/SP/G            HT/PER
                 (UTC) (F)     (DEG/KT/KT) (MB)    (FT/S)
CHAMBERS ISLAND  0700   29     180/  5/ 11 1011.5F
ALGOMA LAKESHORE 0711          220/ 16/ 19   N/A
KEWAUNEE LAKESHO 0700   31     200/  9/ 11 1012.0F
SHEBOYGAN LAKESH 0700   32     190/  9/ 10 1014.8F
PORT WASHINGTON  0700   33     210/  4/  7 1015.2
MILWAUKEE LAKESH 0710   34     210/  8/ 10   N/A
KENOSHA   LAKESH 0700   35     200/  6/  8 1015.9F
$$

TC  - TEMPERATURE IN CELSIUS
VSB - VISIBILITY IN STATUTE MILES
WCI - WIND CHILL INDEX
HX  - HEAT INDEX




USA.gov is the U.S. government's official web portal to all federal, state and local government web resources and services.